Montpelier, VT

10:16 AM EST on February 21, 2017 (GMT -0500)
Knapp State

Weather History for KMPV - August, 2012

Change the Weather History Date:

Friday, August 31, 2012

  Actual Average Record
Temperature  
Mean Temperature 72 °F 63 °F  
Max Temperature 81 °F 74 °F 89 °F (1993)
Min Temperature 62 °F 51 °F 31 °F (1965)
Degree Days  
Heating Degree Days 0 4  
Month to date heating degree days 69  
Since 1 June heating degree days 229  
Since 1 July heating degree days 108  
Cooling Degree Days 7 2  
Month to date cooling degree days 106 76  
Year to date cooling degree days 279 244  
Since 1 June cooling degree days 263 234  
Growing Degree Days 22 (Base 50)    
Moisture  
Dew Point 55 °F    
Average Humidity 69    
Maximum Humidity 100    
Minimum Humidity 38    
Precipitation  
Precipitation 0.01 in 0.10 in 2.21 in (2005)
Month to date precipitation 3.16 4.01  
Year to date precipitation 20.56 24.80  
Sea Level Pressure  
Sea Level Pressure 29.90 in    
Wind  
Wind Speed 4 mph (WSW)    
Max Wind Speed 6 mph    
Max Gust Speed 8 mph    
Visibility 10 miles    
Events Rain    
T = Trace of Precipitation, MM = Missing Value Source: NWS Daily Summary

Daily Weather History Graph

Daily Weather History Graph

Search for Another Location

Airport or City:

Trip Planner

Search our weather history database for the weather conditions in past years. The results will help you decide how hot, cold, wet, or windy it might be!

Date:

Astronomy

Aug. 31, 2012 Rise Set
Actual Time 6:12 AM EDT 7:27 PM EDT
Civil Twilight 5:42 AM EDT 7:57 PM EDT
Nautical Twilight 5:06 AM EDT 8:32 PM EDT
Astronomical Twilight 4:28 AM EDT 9:10 PM EDT
Moon 7:08 PM EDT (8/31) 6:16 AM EDT (8/31)
Length of Visible Light 14h 14m
Length of Day
13h 14m
Full, 100% of the Moon is Illuminated
Aug 31
Full
Sep 8
Last Quarter
Sep 15
New
Sep 22
First Quarter
Sep 29
Full

Hourly Weather History & Observations

Time (EDT) Temp. Heat Index Dew Point Humidity Pressure Visibility Wind Dir Wind Speed Gust Speed Precip Events Conditions
12:51 AM 70.0 °F - 48.9 °F 47% 29.97 in 10.0 mi Variable 4.6 mph - N/A   Clear
1:51 AM 63.0 °F - 51.1 °F 65% 29.98 in 10.0 mi Calm Calm - N/A   Clear
2:51 AM 68.0 °F - 50.0 °F 52% 29.95 in 10.0 mi SE 4.6 mph - N/A   Clear
3:51 AM 72.0 °F - 46.9 °F 41% 29.93 in 10.0 mi WSW 8.1 mph 20.7 mph N/A   Clear
4:51 AM 71.1 °F - 45.0 °F 39% 29.93 in 10.0 mi West 4.6 mph - N/A   Clear
5:51 AM 70.0 °F - 45.0 °F 41% 29.93 in 10.0 mi Variable 3.5 mph - N/A   Clear
6:51 AM 69.1 °F - 45.0 °F 42% 29.94 in 10.0 mi WSW 5.8 mph - N/A   Clear
7:51 AM 70.0 °F - 46.9 °F 44% 29.93 in 10.0 mi WSW 4.6 mph - N/A   Clear
8:51 AM 73.0 °F - 50.0 °F 44% 29.92 in 10.0 mi WSW 6.9 mph - N/A   Clear
9:51 AM 73.4 °F - 53.6 °F 50% 29.93 in 10.0 mi Variable 6.9 mph - N/A   Clear
10:51 AM 73.0 °F - 54.0 °F 51% 29.91 in 10.0 mi SW 5.8 mph - N/A   Clear
11:51 AM 73.0 °F - 55.0 °F 53% 29.91 in 10.0 mi SW 5.8 mph - N/A   Clear
12:51 PM 73.0 °F - 57.0 °F 57% 29.89 in 10.0 mi SW 5.8 mph - N/A   Partly Cloudy
1:51 PM 77.0 °F - 59.0 °F 54% 29.88 in 10.0 mi Calm Calm - 0.00 in   Partly Cloudy
2:51 PM 78.1 °F - 60.1 °F 54% 29.84 in 10.0 mi Variable 3.5 mph - N/A   Scattered Clouds
3:51 PM 80.1 °F 81.1 °F 61.0 °F 52% 29.80 in 10.0 mi SW 6.9 mph - N/A   Clear
4:51 PM 79.0 °F - 61.0 °F 54% 29.81 in 10.0 mi West 8.1 mph 18.4 mph N/A   Mostly Cloudy
5:51 PM 78.1 °F - 61.0 °F 56% 29.83 in 10.0 mi NW 4.6 mph - N/A   Overcast
6:51 PM 70.0 °F - 64.0 °F 81% 29.86 in 10.0 mi NE 6.9 mph - 0.01 in Rain Light Rain
7:51 PM 66.9 °F - 64.9 °F 93% 29.88 in 10.0 mi Calm Calm - 0.00 in   Mostly Cloudy
8:51 PM 64.0 °F - 63.0 °F 96% 29.90 in 7.0 mi South 3.5 mph - N/A   Scattered Clouds
9:51 PM 64.9 °F - 64.0 °F 97% 29.91 in 10.0 mi Calm Calm - N/A   Partly Cloudy
10:51 PM 64.0 °F - 63.0 °F 96% 29.92 in 9.0 mi Calm Calm - N/A   Clear
11:51 PM 63.0 °F - 62.1 °F 97% 29.94 in 9.0 mi WSW 4.6 mph - N/A   Clear